Showing default

KUIPER-00180, 67768

Orbit data source: Space-Track

KUIPER-00180, 67768 is a payload satellite owned by Kuiper Systems (US) in LEO that was launched on Thu, 12 Feb 2026 UTC via an ARIANE 64 launch vehicle from the French Guiana (FRGUI). Payload-class satellites include a variety of spacecraft equipped with specific instruments for various scientific and technological missions. These include communications satellites like Starlink; space stations such as the ISS; scientific satellites like the Hubble; Earth observation satellites from companies like Planet Labs, Umbra, and HawkEye 360; GPS; miniature CubeSats for education and research; and military/defense satellites.

Loading next visibility...
Identifier
67768, 2026-030E
Orbit
LEO
Country
Flag of USUS
Related business
Manufacturer
Kuiper Systems
Mission
Operational Commercial Communications
Bus & Motor
KUIPER, Unknown motor
Mass
~490 kg wet, ~490 kg dry
Launch date (UTC)
2026-02-12 (4 months ago)
Launch vehicle
ARIANE 64
Launch site
French Guiana (FRGUI)
Object type
Payload
Rocket body
Debris
Shape & HBR
Box + 2 Pan, 3.4 m
Radar Cross Section
2.326 m², Large (>1 m²)

Expand to show TLE details & history
Last TLE update: 2 days ago

TLE from 2 days ago
0 KUIPER-00180
1 67768U 26030E   26170.15460036  .00002552  00000-0  36360-3 0  9991
2 67768  51.8988 119.4357 0000747  76.9150 283.1895 14.79934847 20274
Epoch: 2026-06-19T03:42Z
TLE epoch observation values (Epoch: 2026-06-19T03:42:37.471Z)
Latitude
-0.00006°
Longitude
156.39188°
Altitude
630.157 km
Speed
7.545 km/s
True Right ascension
07h 57m 44s
True Declination
0° 00' 00"
Sunlit
Object was in daylight at epoch
Visualization orbit readout
Latitude
Unknown
Longitude
Unknown
Altitude
Unknown
Speed
Unknown
Apparent Right ascension
Unknown
Apparent Declination
Unknown
Sunlit
N/A
Visualization observer readout
Local Sidereal Time
10:18:41
Azimuth
Unknown
Elevation
Unknown
Doppler factor
Unknown
Orbital elements
Apogee altitude
630.505 km
Perigee altitude
629.458 km
Semi-major axis
7,008.118 km
Eccentricity
0.00007
Inclination
51.8988°
RAAN
119.4357°
Arg. of periapsis
76.915°
True anomaly
283.18117°
Mean anomaly
283.1895°
Eccentric anomaly
283.18533°
Mean motion
3.69948 °/min
Orbital period
97.31 mins
BSTAR
0.0003636
Loading maneuver chart data...
Computing Atmospheric mass density...
Loading historical data...
Loading historical data...
Loading historical data...
Loading historical data...
Loading historical data...
Loading historical data...
Loading historical data...

Documentation

Showing up to 5 results
|